FW6406 Weather Reports


Display with metric or nautical units.
time (UTC)temp
F
wind
direction
speed
MPH
gust
MPH
rain 1hr
in
rain 24hr
in
rain mn
in
humidity
%
barometer
mb
20260906211503 94 0 0.0 0.0 0.00 0.00 0.00 19 1006.3
20260906211004 93 0 0.0 0.0 0.00 0.00 0.00 19 1006.4
20260906210504 93 0 0.0 0.0 0.00 0.00 0.00 19 1006.6
20260906210004 93 0 0.0 0.0 0.00 0.00 0.00 20 1006.7
20260906205003 93 0 0.0 0.0 0.00 0.00 0.00 20 1006.7
20260906204504 93 0 0.0 0.0 0.00 0.00 0.00 21 1006.8
20260906204004 92 4 0.0 0.0 0.00 0.00 0.00 21 1006.7
20260906203504 92 0 0.0 0.0 0.00 0.00 0.00 21 1006.8
20260906203004 92 0 0.0 0.0 0.00 0.00 0.00 21 1006.8
20260906202504 92 0 0.0 0.0 0.00 0.00 0.00 21 1006.8
20260906202004 92 0 0.0 0.0 0.00 0.00 0.00 22 1006.9
20260906201504 92 0 0.0 0.0 0.00 0.00 0.00 21 1006.9
20260906201004 92 0 0.0 0.0 0.00 0.00 0.00 22 1006.9
20260906200503 92 0 0.0 0.0 0.00 0.00 0.00 22 1006.8
20260906195004 92 1 0.0 0.0 0.00 0.00 0.00 23 1007.2
20260906194504 91 0 0.0 0.0 0.00 0.00 0.00 24 1007.3
20260906194005 91 0 0.0 0.0 0.00 0.00 0.00 24 1007.3
20260906193504 91 0 0.0 0.0 0.00 0.00 0.00 23 1007.4
20260906192504 91 0 0.0 0.0 0.00 0.00 0.00 24 1007.4
20260906191504 91 0 0.0 0.0 0.00 0.00 0.00 24 1007.5
20260906190505 92 0 0.0 0.0 0.00 0.00 0.00 24 1007.8
20260906190004 92 0 0.0 0.0 0.00 0.00 0.00 24 1007.9
20260906185503 91 0 0.0 0.0 0.00 0.00 0.00 25 1007.8
20260906184504 91 0 0.0 0.0 0.00 0.00 0.00 24 1008.0
20260906184004 90 0 0.0 0.0 0.00 0.00 0.00 25 1008.1
20260906183504 90 0 0.0 0.0 0.00 0.00 0.00 25 1008.3
20260906182504 90 0 0.0 0.0 0.00 0.00 0.00 25 1008.5
20260906181503 89 0 0.0 0.0 0.00 0.00 0.00 27 1008.6
20260906181004 89 0 0.0 0.0 0.00 0.00 0.00 27 1008.6
20260906180004 90 0 0.0 0.0 0.00 0.00 0.00 26 1008.8
20260906175504 90 0 0.0 0.0 0.00 0.00 0.00 27 1008.8
20260906175003 90 0 0.0 0.0 0.00 0.00 0.00 27 1008.9
20260906174004 89 0 0.0 0.0 0.00 0.00 0.00 28 1008.9
20260906173504 89 0 0.0 0.0 0.00 0.00 0.00 28 1009.0
20260906173004 89 0 0.0 0.0 0.00 0.00 0.00 28 1009.0
20260906172504 88 11 0.0 0.0 0.00 0.00 0.00 28 1009.1
20260906172004 88 12 0.0 0.0 0.00 0.00 0.00 29 1009.1
20260906171504 88 0 0.0 0.0 0.00 0.00 0.00 29 1009.1
20260906171004 88 0 0.0 0.0 0.00 0.00 0.00 30 1009.1
20260906170504 88 0 0.0 0.0 0.00 0.00 0.00 30 1009.1
20260906170004 88 0 0.0 0.0 0.00 0.00 0.00 30 1009.1
20260906165004 88 1 0.0 0.0 0.00 0.00 0.00 31 1009.1
20260906164503 88 4 0.0 0.0 0.00 0.00 0.00 30 1009.2
20260906163503 88 1 0.0 0.0 0.00 0.00 0.00 32 1009.3
20260906162503 87 4 0.0 0.0 0.00 0.00 0.00 33 1009.3
20260906162004 87 11 0.0 0.0 0.00 0.00 0.00 34 1009.3
20260906160003 85 0 0.0 0.0 0.00 0.00 0.00 37 1009.2
20260906155004 85 0 0.0 0.0 0.00 0.00 0.00 38 1009.2
20260906154504 85 0 0.0 0.0 0.00 0.00 0.00 38 1009.2
20260906154004 85 1 0.0 0.0 0.00 0.00 0.00 38 1009.1
20260906153503 84 4 0.0 0.0 0.00 0.00 0.00 39 1009.2
20260906153004 84 0 0.0 0.0 0.00 0.00 0.00 39 1009.2
20260906152504 83 0 0.0 0.0 0.00 0.00 0.00 40 1009.2
20260906151504 83 0 0.0 0.0 0.00 0.00 0.00 41 1009.3
20260906150504 82 0 0.0 0.0 0.00 0.00 0.00 42 1009.3
20260906145504 82 0 0.0 0.0 0.00 0.00 0.00 42 1009.3
20260906144504 81 0 0.0 0.0 0.00 0.00 0.00 43 1009.4
20260906144004 81 0 0.0 0.0 0.00 0.00 0.00 43 1009.4
20260906143504 81 0 0.0 0.0 0.00 0.00 0.00 42 1009.4
20260906142504 80 0 0.0 0.0 0.00 0.00 0.00 43 1009.4
20260906135504 78 0 0.0 0.0 0.00 0.00 0.00 45 1009.0
20260906135004 77 0 0.0 0.0 0.00 0.00 0.00 45 1009.0
20260906134504 77 0 0.0 0.0 0.00 0.00 0.00 46 1009.0
20260906134004 77 0 0.0 0.0 0.00 0.00 0.00 47 1008.9
20260906133504 76 0 0.0 0.0 0.00 0.00 0.00 47 1008.8
20260906133004 76 0 0.0 0.0 0.00 0.00 0.00 48 1008.7
20260906132504 75 0 0.0 0.0 0.00 0.00 0.00 48 1008.6
20260906132004 74 0 0.0 0.0 0.00 0.00 0.00 49 1008.6
20260906131004 74 2 0.0 0.0 0.00 0.00 0.00 49 1008.5
20260906130504 73 0 0.0 0.0 0.00 0.00 0.00 49 1008.5
20260906130003 73 0 0.0 0.0 0.00 0.00 0.00 50 1008.5
20260906125505 73 0 0.0 0.0 0.00 0.00 0.00 50 1008.5
20260906125003 73 9 0.0 0.0 0.00 0.00 0.00 50 1008.6
20260906124504 73 0 0.0 0.0 0.00 0.00 0.00 50 1008.5
20260906124004 73 8 0.0 0.0 0.00 0.00 0.00 50 1008.4
20260906123504 73 6 0.0 0.0 0.00 0.00 0.00 50 1008.4
20260906123004 73 0 0.0 0.0 0.00 0.00 0.00 50 1008.3
20260906122504 73 0 0.0 0.0 0.00 0.00 0.00 50 1008.3
20260906122004 73 0 0.0 0.0 0.00 0.00 0.00 50 1008.2
20260906121003 73 0 0.0 0.0 0.00 0.00 0.00 49 1008.1
20260906120004 73 0 0.0 0.0 0.00 0.00 0.00 49 1008.2
20260906115504 73 0 0.0 0.0 0.00 0.00 0.00 49 1008.2
20260906115004 73 0 0.0 0.0 0.00 0.00 0.00 49 1008.2
20260906114004 73 0 0.0 0.0 0.00 0.00 0.00 50 1008.1
20260906113504 73 0 0.0 0.0 0.00 0.00 0.00 49 1008.1
20260906112504 73 1 0.0 0.0 0.00 0.00 0.00 49 1008.0
20260906112004 73 0 0.0 0.0 0.00 0.00 0.00 49 1008.0
20260906111503 73 2 0.0 0.0 0.00 0.00 0.00 49 1008.0
20260906111004 73 3 0.0 0.0 0.00 0.00 0.00 49 1008.1
20260906110504 73 0 0.0 0.0 0.00 0.00 0.00 48 1008.0
20260906105504 73 9 0.0 0.0 0.00 0.00 0.00 48 1008.0
20260906105004 74 0 0.0 0.0 0.00 0.00 0.00 48 1007.9
20260906104004 74 0 0.0 0.0 0.00 0.00 0.00 47 1008.0
20260906103504 74 0 0.0 0.0 0.00 0.00 0.00 47 1007.9
20260906102504 74 0 0.0 0.0 0.00 0.00 0.00 47 1007.9
20260906102004 74 0 0.0 0.0 0.00 0.00 0.00 46 1007.8
20260906101504 74 0 0.0 0.0 0.00 0.00 0.00 46 1007.8
20260906101004 74 0 0.0 0.0 0.00 0.00 0.00 46 1007.6
20260906100504 75 1 0.0 0.0 0.00 0.00 0.00 46 1007.7
20260906100004 75 0 0.0 0.0 0.00 0.00 0.00 46 1007.7
20260906095503 75 0 0.0 0.0 0.00 0.00 0.00 45 1007.6
20260906094504 75 0 0.0 0.0 0.00 0.00 0.00 45 1007.6
20260906094004 75 0 0.0 0.0 0.00 0.00 0.00 45 1007.7
20260906093504 75 0 0.0 0.0 0.00 0.00 0.00 45 1007.6
20260906093004 75 0 0.0 0.0 0.00 0.00 0.00 45 1007.7
20260906092504 76 0 0.0 0.0 0.00 0.00 0.00 45 1007.7
20260906092004 76 0 0.0 0.0 0.00 0.00 0.00 45 1007.7
20260906091504 76 0 0.0 0.0 0.00 0.00 0.00 44 1007.7
20260906091004 76 0 0.0 0.0 0.00 0.00 0.00 44 1007.7
20260906085504 76 0 0.0 0.0 0.00 0.00 0.00 44 1007.6
20260906083504 77 0 0.0 0.0 0.00 0.00 0.00 43 1007.6
20260906083004 77 0 0.0 0.0 0.00 0.00 0.00 42 1007.5
20260906082504 77 0 0.0 0.0 0.00 0.00 0.00 42 1007.6
20260906082004 77 0 0.0 0.0 0.00 0.00 0.00 42 1007.6
20260906081504 77 0 0.0 0.0 0.00 0.00 0.00 43 1007.6
20260906081004 77 0 0.0 0.0 0.00 0.00 0.00 42 1007.6
20260906080504 77 0 0.0 0.0 0.00 0.00 0.00 42 1007.6
20260906080004 77 0 0.0 0.0 0.00 0.00 0.00 42 1007.6
20260906075504 77 0 0.0 0.0 0.00 0.00 0.00 42 1007.6
20260906075004 78 0 0.0 0.0 0.00 0.00 0.00 41 1007.7
20260906074503 78 0 0.0 0.0 0.00 0.00 0.00 41 1007.6
20260906073504 78 0 0.0 0.0 0.00 0.00 0.00 41 1007.5
20260906073004 78 0 0.0 0.0 0.00 0.00 0.00 40 1007.6
20260906072504 78 0 0.0 0.0 0.00 0.00 0.00 40 1007.7
20260906070503 79 0 0.0 0.0 0.00 0.00 0.00 40 1007.8
20260906070004 79 0 0.0 0.0 0.00 0.00 0.00 40 1007.9
20260906064504 79 0 0.0 0.0 0.00 0.00 0.00 39 1007.8
20260906063504 79 0 0.0 0.0 0.00 0.00 0.00 39 1007.8
20260906062504 79 0 0.0 0.0 0.00 0.00 0.00 39 1007.8
20260906062003 79 0 0.0 0.0 0.00 0.00 0.00 39 1007.8
20260906061504 79 0 0.0 0.0 0.00 0.00 0.00 39 1007.9
20260906060504 80 0 0.0 0.0 0.00 0.00 0.00 38 1007.9
20260906060003 80 0 0.0 0.0 0.00 0.00 0.00 37 1007.9
20260906055503 81 0 0.0 0.0 0.00 0.00 0.00 37 1007.9
20260906055004 81 0 0.0 0.0 0.00 0.00 0.00 36 1008.0
20260906054504 82 0 0.0 0.0 0.00 0.00 0.00 35 1008.0
20260906054004 82 0 0.0 0.0 0.00 0.00 0.00 35 1008.0
20260906052504 83 0 0.0 0.0 0.00 0.00 0.00 34 1007.7
20260906052004 83 0 0.0 0.0 0.00 0.00 0.00 33 1007.7
20260906051504 83 0 0.0 0.0 0.00 0.00 0.00 33 1007.8
20260906050004 84 0 0.0 0.0 0.00 0.00 0.00 32 1007.8
20260906045504 84 0 0.0 0.0 0.00 0.00 0.00 32 1007.9
20260906044504 84 0 0.0 0.0 0.00 0.00 0.00 32 1007.8
20260906044005 84 0 0.0 0.0 0.00 0.00 0.00 32 1007.8
20260906043504 84 0 0.0 0.0 0.00 0.00 0.00 32 1007.7
20260906042503 85 0 0.0 0.0 0.00 0.00 0.00 31 1007.8
20260906042003 85 0 0.0 0.0 0.00 0.00 0.00 31 1007.8
20260906041504 85 0 0.0 0.0 0.00 0.00 0.00 31 1007.8
20260906041004 85 1 0.0 0.0 0.00 0.00 0.00 31 1007.8
20260906040004 84 0 0.0 0.0 0.00 0.00 0.00 32 1007.9
20260906035504 84 0 0.0 0.0 0.00 0.00 0.00 32 1007.9
20260906035004 84 0 0.0 0.0 0.00 0.00 0.00 32 1007.9
20260906034504 84 1 0.0 0.0 0.00 0.00 0.00 31 1008.0
20260906033504 85 0 0.0 0.0 0.00 0.00 0.00 31 1008.0
20260906033004 85 0 0.0 0.0 0.00 0.00 0.00 31 1007.9
20260906031504 86 0 0.0 0.0 0.00 0.00 0.00 30 1007.5
20260906031004 86 0 0.0 0.0 0.00 0.00 0.00 30 1007.3
20260906030504 86 0 0.0 0.0 0.00 0.00 0.00 30 1007.2
20260906030004 86 11 0.0 0.0 0.00 0.00 0.00 30 1007.1
20260906025504 86 10 0.0 0.0 0.00 0.00 0.00 30 1007.0
20260906025004 87 11 0.0 0.0 0.00 0.00 0.00 28 1007.0
20260906024504 88 0 0.0 0.0 0.00 0.00 0.00 27 1006.8
20260906022003 88 0 0.0 0.0 0.00 0.00 0.00 26 1006.6
20260906020504 88 0 0.0 0.0 0.00 0.00 0.00 26 1006.4
20260906020004 89 0 0.0 0.0 0.00 0.00 0.00 26 1006.3
20260906015504 89 0 0.0 0.0 0.00 0.00 0.00 26 1006.2
20260906015004 89 0 0.0 0.0 0.00 0.00 0.00 26 1006.1
20260906014503 89 0 0.0 0.0 0.00 0.00 0.00 26 1006.0
20260906014004 89 0 0.0 0.0 0.00 0.00 0.00 26 1005.7
20260906013503 89 0 0.0 0.0 0.00 0.00 0.00 26 1005.6
20260906013003 89 0 0.0 0.0 0.00 0.00 0.00 26 1005.6
20260906012503 89 0 0.0 0.0 0.00 0.00 0.00 26 1005.6
20260906012004 90 0 0.0 0.0 0.00 0.00 0.00 26 1005.6
20260906011504 90 0 0.0 0.0 0.00 0.00 0.00 26 1005.5
20260906011004 90 0 0.0 0.0 0.00 0.00 0.00 26 1005.6
20260906005504 91 1 0.0 0.0 0.00 0.00 0.00 25 1005.4
20260906005003 91 0 0.0 0.0 0.00 0.00 0.00 24 1005.5
20260906003004 92 0 0.0 0.0 0.00 0.00 0.00 23 1005.3
20260906002004 92 0 0.0 0.0 0.00 0.00 0.00 23 1005.2
20260906001004 92 0 0.0 0.0 0.00 0.00 0.00 23 1005.1
20260906000503 92 0 0.0 0.0 0.00 0.00 0.00 24 1005.0
20260906000004 92 0 0.0 0.0 0.00 0.00 0.00 24 1004.9
20260905235004 93 5 0.0 0.0 0.00 0.00 0.00 23 1004.6
20260905234504 93 0 0.0 0.0 0.00 0.00 0.00 23 1004.6
20260905234004 94 0 0.0 0.0 0.00 0.00 0.00 21 1004.5
20260905233504 94 0 0.0 0.0 0.00 0.00 0.00 21 1004.5
20260905233004 94 0 0.0 0.0 0.00 0.00 0.00 20 1004.3
20260905232503 94 0 0.0 0.0 0.00 0.00 0.00 20 1004.2
20260905232004 94 0 0.0 0.0 0.00 0.00 0.00 21 1004.3
20260905230504 95 0 0.0 0.0 0.00 0.00 0.00 20 1004.3
20260905225004 96 0 0.0 0.0 0.00 0.00 0.00 19 1004.3
20260905224504 96 3 0.0 0.0 0.00 0.00 0.00 19 1004.3
20260905224003 96 0 0.0 0.0 0.00 0.00 0.00 18 1004.3
20260905222504 96 0 0.0 0.0 0.00 0.00 0.00 18 1004.4
20260905222004 95 7 0.0 0.0 0.00 0.00 0.00 19 1004.3
20260905221504 95 14 0.0 0.0 0.00 0.00 0.00 19 1004.3
20260905220504 95 11 0.0 0.0 0.00 0.00 0.00 19 1004.4
20260905215504 95 10 0.0 0.0 0.00 0.00 0.00 20 1004.5
20260905215004 95 9 0.0 0.0 0.00 0.00 0.00 20 1004.6
20260905214504 95 9 0.0 0.0 0.00 0.00 0.00 21 1004.7
20260905214004 95 3 0.0 0.0 0.00 0.00 0.00 20 1004.7
20260905213004 96 1 0.0 0.0 0.00 0.00 0.00 20 1004.7